Weather History for Provo, UT

Change the Weather History Date:

Sunday, April 15, 2012

  Actual Average Record
Temperature  
Mean Temperature 43 °F -  
Max Temperature 53 °F 57 °F 81 °F (1985)
Min Temperature 33 °F 35 °F 28 °F (1999)
Degree Days  
Heating Degree Days 22    
Moisture  
Dew Point 33 °F    
Average Humidity 73    
Maximum Humidity 100    
Minimum Humidity 28    
Precipitation  
Precipitation 0.00 in - - ()
Sea Level Pressure  
Sea Level Pressure 29.98 in    
Wind  
Wind Speed 6 mph (ENE)    
Max Wind Speed 13 mph    
Max Gust Speed -    
Visibility 11 miles    
Events      
Averages and records for this station are not official NWS values.
T = Trace of Precipitation, MM = Missing Value Source: NWS Daily Summary

Daily Weather History Graph

Daily Weather History Graph

Search for Another Location

Airport:

Trip Planner

Search our weather history database for the weather conditions in past years. The results will help you decide how hot, cold, wet, or windy it might be!

Date:

Astronomy

Apr. 15, 2012 Rise Set
Actual Time 6:47 AM MDT 8:06 PM MDT
Civil Twilight 6:19 AM MDT 8:34 PM MDT
Nautical Twilight 5:46 AM MDT 9:08 PM MDT
Astronomical Twilight 5:10 AM MDT 9:44 PM MDT
Moon 3:48 AM MDT (4/15) 3:04 PM MDT (4/15)
Length of Visible Light 14h 14m
Length of Day
13h 18m
Waning Crescent, 27% of the Moon is Illuminated
Apr 15
Waning Crescent
Apr 21
New
Apr 29
First Quarter
May 5
Full
May 12
Last Quarter

Hourly Weather History & Observations

Time (MDT) Temp. Windchill Dew Point Humidity Pressure Visibility Wind Dir Wind Speed Gust Speed Precip Events Conditions
12:15 AM 42.8 °F 41.1 °F 37.4 °F 81% 29.82 in 10.0 mi ESE 3.5 mph - N/A   Clear
12:35 AM 42.8 °F 38.0 °F 37.4 °F 81% 29.83 in 10.0 mi South 8.1 mph - N/A   Clear
12:55 AM 39.2 °F 33.0 °F 35.6 °F 87% 29.84 in 10.0 mi South 9.2 mph - N/A   Clear
1:15 AM 39.2 °F 33.0 °F 35.6 °F 87% 29.85 in 10.0 mi South 9.2 mph - N/A   Clear
1:35 AM 39.2 °F 32.5 °F 35.6 °F 87% 29.85 in 10.0 mi South 10.4 mph - N/A   Partly Cloudy
1:55 AM 39.2 °F 33.6 °F 35.6 °F 87% 29.86 in 10.0 mi SSE 8.1 mph - N/A   Mostly Cloudy
2:15 AM 39.2 °F 34.2 °F 37.4 °F 93% 29.87 in 10.0 mi ESE 6.9 mph - N/A   Mostly Cloudy
2:35 AM 39.2 °F 34.2 °F 35.6 °F 87% 29.87 in 10.0 mi ESE 6.9 mph - N/A   Mostly Cloudy
2:55 AM 39.2 °F 35.9 °F 35.6 °F 87% 29.88 in 10.0 mi East 4.6 mph - N/A   Partly Cloudy
3:15 AM 37.4 °F 33.8 °F 35.6 °F 93% 29.89 in 10.0 mi East 4.6 mph - N/A   Partly Cloudy
3:35 AM 35.6 °F 31.7 °F 33.8 °F 93% 29.89 in 10.0 mi NE 4.6 mph - N/A   Scattered Clouds
3:55 AM 37.4 °F 34.9 °F 33.8 °F 87% 29.90 in 10.0 mi ENE 3.5 mph - N/A   Partly Cloudy
4:15 AM 35.6 °F 30.7 °F 35.6 °F 100% 29.91 in 10.0 mi NE 5.8 mph - N/A   Scattered Clouds
4:35 AM 37.4 °F 32.8 °F 35.6 °F 93% 29.92 in 10.0 mi NE 5.8 mph - N/A   Scattered Clouds
4:55 AM 37.4 °F 32.8 °F 33.8 °F 87% 29.92 in 10.0 mi ENE 5.8 mph - N/A   Partly Cloudy
5:15 AM 37.4 °F 32.8 °F 35.6 °F 93% 29.93 in 10.0 mi ENE 5.8 mph - N/A   Clear
5:35 AM 35.6 °F 31.7 °F 33.8 °F 93% 29.93 in 10.0 mi NE 4.6 mph - N/A   Clear
5:55 AM 35.6 °F 31.7 °F 33.8 °F 93% 29.94 in 10.0 mi NNE 4.6 mph - N/A   Clear
6:15 AM 35.6 °F 31.7 °F 33.8 °F 93% 29.95 in 10.0 mi NE 4.6 mph - N/A   Clear
6:35 AM 35.6 °F 30.7 °F 33.8 °F 93% 29.96 in 10.0 mi NNE 5.8 mph - N/A   Clear
6:47 AM 33.8 °F 29.6 °F 32.0 °F 93% 29.96 in 15.0 mi Variable 4.6 mph - N/A   Scattered Clouds
6:55 AM 35.6 °F 30.7 °F 33.8 °F 93% 29.97 in 10.0 mi ENE 5.8 mph - N/A   Clear
7:15 AM 35.6 °F 31.7 °F 35.6 °F 100% 29.99 in 10.0 mi East 4.6 mph - N/A   Scattered Clouds
7:35 AM 37.4 °F 32.8 °F 35.6 °F 93% 29.99 in 10.0 mi East 5.8 mph - N/A   Mostly Cloudy
7:47 AM 37.4 °F 32.8 °F 35.6 °F 93% 30.00 in 15.0 mi Variable 5.8 mph - N/A   Scattered Clouds
7:55 AM 37.4 °F 32.8 °F 35.6 °F 93% 30.01 in 9.0 mi ENE 5.8 mph - N/A   Mostly Cloudy
8:15 AM 37.4 °F - 35.6 °F 93% 30.02 in 10.0 mi Calm Calm - N/A   Partly Cloudy
8:35 AM 39.2 °F 35.0 °F 37.4 °F 93% 30.02 in 10.0 mi East 5.8 mph - N/A   Clear
8:53 AM 42.8 °F 40.1 °F 37.4 °F 81% 30.03 in 15.0 mi Variable 4.6 mph - N/A   Scattered Clouds
8:55 AM 42.8 °F 41.1 °F 37.4 °F 81% 30.03 in 10.0 mi ENE 3.5 mph - N/A   Clear
9:15 AM 42.8 °F 40.1 °F 37.4 °F 81% 30.04 in 10.0 mi East 4.6 mph - N/A   Partly Cloudy
9:35 AM 44.6 °F 42.2 °F 37.4 °F 76% 30.04 in 10.0 mi East 4.6 mph - N/A   Partly Cloudy
9:53 AM 44.6 °F 40.7 °F 35.6 °F 71% 30.05 in 15.0 mi WNW 6.9 mph - N/A   Scattered Clouds
9:55 AM 44.6 °F - 35.6 °F 71% 30.05 in 10.0 mi Calm Calm - N/A   Clear
10:15 AM 46.4 °F - 37.4 °F 71% 30.05 in 10.0 mi Calm Calm - N/A   Scattered Clouds
10:35 AM 46.4 °F 45.2 °F 33.8 °F 62% 30.06 in 10.0 mi WNW 3.5 mph - N/A   Partly Cloudy
10:55 AM 46.4 °F 43.5 °F 33.8 °F 62% 30.06 in 10.0 mi SW 5.8 mph - N/A   Clear
10:59 AM 46.4 °F 44.3 °F 33.8 °F 62% 30.06 in 15.0 mi Variable 4.6 mph - N/A   Scattered Clouds
11:47 AM 48.2 °F - 33.8 °F 58% 30.06 in 15.0 mi Variable 5.8 mph - N/A   Mostly Cloudy
12:47 PM 51.8 °F - 32.0 °F 47% 30.06 in 15.0 mi West 11.5 mph - N/A   Mostly Cloudy
1:49 PM 51.8 °F - 33.8 °F 50% 30.05 in 15.0 mi Variable 4.6 mph - N/A   Scattered Clouds
3:50 PM 53.6 °F - 30.2 °F 41% 30.03 in 15.0 mi SSW 9.2 mph - N/A   Mostly Cloudy
4:53 PM 51.8 °F - 24.8 °F 35% 30.03 in 15.0 mi Variable 5.8 mph - N/A   Mostly Cloudy
5:50 PM 53.6 °F - 23.0 °F 30% 30.03 in 15.0 mi Variable 5.8 mph - N/A   Mostly Cloudy
6:50 PM 53.6 °F - 21.2 °F 28% 30.04 in 15.0 mi NW 11.5 mph - N/A   Mostly Cloudy
8:50 PM 48.2 °F - 19.4 °F 32% 30.05 in 15.0 mi Calm Calm - N/A   Mostly Cloudy
9:15 PM 48.2 °F - 21.2 °F 34% 30.06 in 10.0 mi NW 3.5 mph - N/A   Mostly Cloudy
9:35 PM 48.2 °F - 24.8 °F 40% 30.07 in 10.0 mi NW 4.6 mph - N/A   Overcast
10:15 PM 46.4 °F 43.5 °F 24.8 °F 43% 30.08 in 10.0 mi NW 5.8 mph - N/A   Mostly Cloudy
10:55 PM 46.4 °F 45.2 °F 26.6 °F 46% 30.09 in 10.0 mi NNW 3.5 mph - N/A   Overcast
11:15 PM 46.4 °F 42.4 °F 26.6 °F 46% 30.09 in 10.0 mi NW 8.1 mph - N/A   Mostly Cloudy
11:35 PM 46.4 °F 40.7 °F 28.4 °F 50% 30.10 in 10.0 mi NW 12.7 mph - N/A   Clear
11:55 PM 48.2 °F - 26.6 °F 43% 30.11 in 10.0 mi North 8.1 mph - N/A   Mostly Cloudy